Temperature
17 17 17 17 17 17 17 17 17 17 17 18 18 18 18 18 18 18 18 18 18 18 17 17 17 18 18 17 17 18 17 17 18 18 18 18 18 18 18 18 18 18 18
16 17 17 17 17 17 17 17 17 17 17 17 17 17 18 18 18 17 17 17 18 18 17 17 17 17 17 17 17 17 17 17 17 17 18 18 18 18 18 18 18 17 17
15 16 16 16 17 17 17 17 17 17 17 17 17 17 18 18 18 18 18 17 17 18 18 17 17 17 17 17 17 17 17 17 17 17 17 17 17 17 17 17 17 17 17
15 15 16 16 16 16 17 17 17 17 17 17 17 17 17 17 17 18 18 18 18 18 18 18 17 17 17 17 17 17 17 17 17 17 17 17 17 17 17 17 17 17 17
14 15 15 15 16 16 16 16 17 17 17 17 17 17 17 17 17 17 18 18 18 18 18 18 18 17 17 17 17 17 17 17 17 17 17 17 17 17 17 17 17 17 17
14 14 14 15 15 15 16 16 16 16 17 17 17 17 17 17 17 17 18 18 18 18 18 17 17 17 17 17 17 17 17 17 17 17 17 17 17 17 17 17 17 17 17
13 14 14 14 14 15 15 15 16 16 16 16 16 16 17 17 17 17 17 18 18 18 18 18 17 17 17 17 17 17 17 17 17 17 17 17 17 17 17 17 17 16 16
13 13 13 14 14 14 15 15 15 16 16 16 16 16 16 16 17 17 17 17 18 18 18 18 18 17 17 17 17 17 17 17 17 17 17 17 17 17 17 16 16 16 16
13 13 13 13 14 14 14 15 15 15 15 15 16 16 16 17 17 17 17 17 18 18 18 18 18 18 17 17 17 17 17 17 17 17 17 17 17 16 16 16 16 16 16
13 13 13 13 13 14 14 14 14 15 15 15 15 15 16 16 16 16 17 17 17 18 18 18 18 18 18 17 17 17 17 17 17 16 16 16 16 16 16 16 16 16 16
12 12 13 13 13 13 14 14 14 14 14 14 15 15 15 15 16 16 16 17 17 17 17 17 18 18 18 17 17 17 17 17 17 17 16 16 16 16 16 16 16 16 16
12 12 12 13 13 13 13 13 14 14 14 14 14 14 15 15 15 16 16 16 16 17 17 17 17 17 17 17 17 17 17 17 17 17 16 16 16 16 16 16 16 16 16
12 12 12 12 13 13 13 13 14 14 14 14 14 14 14 15 15 15 16 16 16 16 16 16 17 17 17 17 17 17 17 17 17 17 16 16 16 16 16 16 16 16 16
11 11 12 12 12 12 13 13 13 13 13 14 14 14 14 14 15 15 15 15 15 15 16 16 17 17 17 17 17 17 17 17 17 17 16 16 16 16 16 16 16 16 15
11 11 11 11 12 12 12 12 13 13 13 13 13 14 14 14 14 14 15 15 15 15 15 16 16 16 16 17 17 17 17 17 17 16 16 16 16 16 16 16 15 15 15
11 11 11 11 11 12 12 12 12 13 13 13 13 14 14 14 14 14 14 15 15 15 15 16 16 16 16 16 16 16 16 16 16 16 16 16 16 16 16 15 15 15 15
11 11 11 11 11 11 11 12 12 12 12 13 13 13 13 14 14 14 14 14 15 15 15 15 15 15 16 16 16 16 16 16 16 16 16 16 16 15 15 15 15 15 15
10 10 10 10 11 11 11 11 12 12 12 12 13 13 13 13 14 14 14 14 14 14 14 14 15 15 15 15 15 15 16 16 16 16 15 15 15 15 15 15 15 15 14
10 10 10 10 10 10 11 11 11 11 12 12 12 12 13 13 13 14 14 14 14 14 14 14 14 14 15 15 15 15 15 15 15 15 15 15 15 15 14 14 14 14 14
10 10 10 10 10 10 10 11 11 11 11 12 12 12 12 13 13 13 13 13 14 14 14 14 14 14 14 14 14 14 14 14 14 15 14 14 14 14 14 14 14 14 14
10 9 10 10 10 10 10 10 11 11 11 11 12 12 12 12 13 13 13 13 13 13 13 13 13 13 14 14 14 14 14 14 14 14 14 14 14 13 13 13 13 13 13
9 9 9 10 10 10 10 10 10 11 11 11 12 12 12 12 12 12 13 13 13 13 13 13 13 13 13 14 14 14 14 14 13 14 14 13 13 13 13 13 13 13 13
9 9 9 10 10 10 10 10 10 10 10 11 11 12 12 12 12 12 12 13 13 13 13 13 13 13 13 14 14 13 13 13 13 13 13 13 13 13 13 13 13 12 12
9 9 10 10 10 10 10 10 10 10 10 11 11 11 12 12 12 12 12 12 12 13 13 13 13 13 13 13 14 14 13 13 13 13 13 13 12 12 12 12 12 12 12
10 10 10 10 10 10 10 10 10 10 10 10 11 11 11 11 12 12 12 12 12 12 13 13 13 13 13 13 13 13 13 13 12 12 12 12 12 12 12 12 12 12 11
10 10 10 10 10 10 10 10 10 10 10 10 11 11 11 11 12 12 12 12 12 12 12 13 13 13 13 13 13 13 13 13 12 12 12 12 12 11 11 11 11 11 11
Wind_Speed
5 5 5 6 7 7 7 7 8 8 8 9 8 9 9 10 9 8 6 9 8 8 9 9 9 8 8 7 7 7 8 9 9 10 11 11 11 11 11 11 10 10 9
5 5 5 5 5 7 7 7 7 7 7 6 8 9 9 9 10 10 9 9 11 10 10 10 10 10 9 9 8 8 9 9 10 10 11 11 12 11 11 10 10 9 8
7 6 6 6 6 7 7 6 6 6 7 7 8 9 8 9 9 10 11 9 10 13 13 12 11 11 10 10 10 10 10 9 10 10 11 12 12 12 11 10 9 8 8
8 7 7 7 6 6 5 5 5 6 7 7 7 7 7 7 10 10 10 10 10 9 14 15 13 12 11 11 11 10 11 11 10 11 11 12 12 12 11 10 9 8 7
8 8 6 6 7 6 6 6 6 6 7 7 7 7 7 7 8 9 11 12 11 10 10 15 15 13 12 12 12 12 12 12 12 11 12 12 12 12 11 10 9 9 8
8 8 6 7 7 6 6 6 7 7 6 7 7 7 6 7 7 8 9 9 10 12 12 11 13 14 15 13 12 13 13 13 13 13 13 13 12 12 11 11 10 9 8
7 7 6 6 6 6 7 8 7 8 7 6 5 5 6 7 7 7 8 9 11 11 11 12 12 10 13 16 14 13 14 14 14 14 14 13 13 12 12 11 10 9 8
7 6 6 6 6 6 8 8 8 7 6 7 6 5 5 5 7 8 8 9 12 10 12 13 13 12 10 11 15 17 14 15 15 15 14 14 14 13 13 12 11 10 9
7 7 6 6 6 7 7 8 8 9 7 8 8 6 5 7 5 5 9 10 10 9 11 12 14 14 13 11 11 18 17 15 15 15 15 15 15 14 14 13 12 11 10
7 7 6 6 6 6 7 8 8 8 9 8 8 9 8 5 4 5 6 9 10 11 11 11 12 14 14 13 11 12 20 18 16 15 16 16 16 15 14 13 12 11 10
7 7 7 6 6 6 7 8 8 9 8 9 8 7 9 8 8 6 6 6 7 9 10 11 10 11 14 14 12 14 19 19 17 16 16 16 16 16 15 14 13 12 11
6 8 8 6 6 6 6 7 8 9 9 10 9 9 8 8 9 9 8 7 7 7 8 8 9 9 11 14 14 15 20 20 19 17 16 16 16 17 16 15 14 13 13
7 9 8 7 7 6 7 7 8 9 10 10 11 10 10 11 9 10 9 7 6 4 5 7 9 8 10 13 13 16 19 21 20 19 18 17 16 16 17 16 15 15 14
7 9 9 8 8 7 7 7 7 8 8 9 11 11 10 11 11 11 10 9 7 6 7 8 6 9 10 12 13 18 17 21 21 20 19 18 18 17 17 16 16 15 15
8 9 9 9 8 8 7 7 6 7 7 8 9 11 11 10 10 11 11 10 9 9 9 9 7 8 9 11 11 15 15 20 22 21 21 20 20 18 18 16 15 15 14
8 9 9 9 8 8 7 7 7 6 7 7 7 9 10 10 10 10 11 11 11 10 8 7 7 6 8 9 12 14 14 17 22 22 22 21 21 20 19 17 17 15 15
9 9 9 9 9 8 8 7 7 7 7 7 7 8 9 10 9 10 10 10 11 11 10 6 6 6 8 9 9 12 13 13 16 21 21 22 21 21 20 19 18 17 16
9 9 9 9 9 9 8 8 8 8 8 7 7 7 8 7 9 9 9 11 10 11 10 10 7 7 8 9 9 10 9 12 13 18 22 22 22 21 20 19 18 18 17
8 9 9 9 9 9 9 9 8 8 8 7 7 7 7 7 7 7 8 9 9 9 9 9 7 6 6 7 9 9 10 7 10 15 19 21 21 22 21 20 19 18 18
8 9 9 9 9 9 9 10 9 8 8 7 7 7 7 7 7 6 7 8 8 9 9 8 7 6 6 7 8 8 9 8 8 10 12 15 18 20 20 19 19 19 19
8 8 9 9 9 9 9 12 11 9 8 8 7 6 5 5 6 6 6 6 7 8 8 8 8 7 7 7 9 8 8 7 7 7 9 9 11 11 14 17 18 19 20
8 8 9 9 9 8 11 13 12 10 8 7 6 5 4 4 3 4 5 6 6 8 9 9 8 9 10 9 8 8 8 8 6 7 8 8 8 9 9 13 18 21 21
8 8 9 9 9 9 11 13 13 10 8 7 6 5 3 2 3 3 3 6 6 7 9 9 10 11 11 11 11 11 10 9 6 8 8 6 7 7 7 13 21 22 22
8 8 8 9 8 8 10 12 14 9 7 7 6 5 4 3 3 4 2 3 3 4 6 8 9 9 9 9 11 10 10 8 7 6 6 5 5 5 6 11 19 21 21
8 8 7 8 8 8 9 11 13 7 6 7 6 5 5 4 4 5 3 2 2 2 1 3 4 5 6 9 10 9 10 10 7 4 3 4 5 5 5 5 13 19 20
7 8 7 7 8 8 8 10 12 6 6 6 5 4 4 5 6 6 4 2 2 2 2 3 4 5 7 9 12 11 11 11 8 4 4 5 7 5 4 3 6 12 15
Wind_Direction
253 251 251 247 250 250 242 237 236 233 235 238 234 233 231 222 227 224 193 175 205 215 212 206 203 202 200 197 185 176 170 165 161 158 153 150 148 146 143 141 139 137 135
261 258 256 250 246 242 241 240 240 235 234 236 239 237 238 231 228 225 223 193 199 210 213 209 205 204 205 203 194 185 179 173 169 166 162 158 155 153 152 150 149 146 143
269 264 259 249 240 232 234 237 236 232 228 229 232 238 236 236 232 225 222 220 204 200 206 207 207 206 206 208 201 192 185 181 177 173 170 167 164 161 159 159 158 156 153
275 272 264 258 248 238 232 228 225 224 223 225 229 228 229 225 233 234 227 217 218 206 197 201 204 206 209 211 207 200 192 188 184 180 177 173 172 169 168 168 167 165 164
284 274 268 266 256 244 234 231 222 222 225 223 228 228 232 229 230 229 231 226 215 212 208 185 198 206 210 214 211 206 201 195 190 186 183 179 177 176 177 177 176 177 177
292 284 271 261 257 250 242 231 228 222 227 224 228 227 228 229 232 230 239 238 229 214 215 196 195 204 209 215 216 210 207 201 195 192 188 186 184 184 184 184 186 185 185
303 288 279 274 263 253 249 241 232 227 225 219 220 225 227 230 234 235 234 238 234 225 218 211 207 201 199 208 216 215 212 207 202 198 195 192 190 190 189 189 191 192 192
319 304 290 278 263 259 251 245 235 236 230 213 215 219 222 220 226 230 232 234 236 221 222 218 212 206 210 198 203 207 213 210 207 203 200 197 195 194 193 193 194 196 196
327 316 303 289 276 263 255 248 239 233 234 226 222 220 223 224 203 206 224 228 232 230 222 223 219 208 208 210 196 197 205 208 208 206 204 200 198 197 197 196 196 197 194
340 332 316 300 285 272 264 256 244 240 236 233 228 230 238 244 214 202 208 224 227 226 228 224 224 217 208 209 206 195 194 203 206 210 208 204 200 199 198 197 196 193 190
346 344 334 320 304 286 275 266 258 243 237 236 232 227 229 233 236 232 214 204 219 224 225 231 226 221 215 211 208 199 189 199 205 208 208 205 201 198 196 194 192 189 187
346 350 341 330 316 304 293 280 266 254 245 241 238 232 227 222 221 225 228 211 208 214 217 226 234 227 218 216 211 186 187 198 203 205 206 204 202 199 196 192 192 189 186
344 345 340 330 322 310 298 289 275 263 253 247 242 238 236 236 234 228 228 224 215 203 203 217 225 227 224 219 210 181 192 198 203 203 203 200 198 196 195 193 193 190 187
338 337 334 330 324 316 304 293 283 272 260 251 247 242 240 239 236 232 229 224 219 210 209 217 211 214 219 220 212 186 199 198 203 202 200 197 194 192 193 193 192 190 185
337 338 335 332 329 320 310 303 286 281 273 259 251 244 239 238 236 234 231 227 223 222 218 212 203 209 210 216 201 200 208 196 199 200 198 195 191 189 188 186 186 183 181
340 338 338 335 333 328 321 314 303 295 281 268 259 253 246 240 235 231 229 226 225 229 231 208 201 197 198 210 204 207 211 190 193 195 193 189 186 184 184 183 180 179 177
340 343 340 337 336 333 328 321 313 307 293 279 268 264 260 249 238 229 226 225 224 222 229 222 194 191 191 201 196 201 203 196 195 193 190 185 183 181 180 179 179 177 175
339 341 341 338 339 336 333 327 318 313 304 295 282 274 271 262 246 234 227 225 223 221 221 219 201 191 197 196 193 193 194 197 194 187 186 184 180 178 177 177 176 176 176
336 338 341 340 338 336 332 327 323 317 311 300 291 282 276 264 256 243 234 228 222 220 220 219 205 192 195 189 186 188 187 183 188 182 181 180 176 174 174 175 174 174 172
335 338 338 338 338 336 336 334 329 321 315 308 297 284 276 266 257 250 242 234 224 217 212 212 205 193 190 186 184 184 181 180 179 173 171 171 170 170 171 171 171 170 167
334 337 334 336 341 340 346 340 332 322 317 315 305 291 279 279 280 266 254 241 230 220 211 207 205 195 191 185 190 185 181 170 171 167 161 164 161 164 166 164 165 164 162
335 336 333 336 336 341 345 338 331 325 324 321 318 307 288 258 256 249 252 252 246 230 217 210 208 205 200 193 185 181 176 172 174 168 161 160 158 158 158 163 164 162 159
333 333 334 333 330 342 346 340 339 327 328 332 330 327 322 321 291 253 224 228 238 236 234 224 216 214 206 195 187 187 184 177 168 159 152 153 154 153 148 157 160 160 158
328 327 329 328 326 337 348 340 333 322 332 336 338 334 330 332 347 328 288 253 246 228 227 229 229 225 212 199 191 187 174 153 129 140 141 140 142 135 133 145 155 155 155
323 325 326 324 326 333 355 342 332 328 332 336 341 348 345 340 2 327 293 279 272 256 229 243 250 231 200 181 174 168 166 160 152 143 125 126 132 116 112 130 147 152 154
314 314 317 320 323 325 352 342 334 327 332 334 334 341 12 355 342 318 287 270 263 253 226 199 198 191 185 172 172 181 174 167 153 144 149 133 141 133 116 102 136 149 151
Height
1529 1529 1530 1530 1531 1532 1533 1535 1536 1538 1540 1542 1543 1544 1546 1547 1548 1549 1550 1550 1551 1551 1552 1552 1553 1553 1554 1555 1556 1557 1559 1560 1561 1563 1564 1565 1566 1568 1569 1570 1571 1571 1572
1526 1526 1526 1527 1527 1528 1529 1531 1533 1535 1536 1538 1539 1541 1542 1544 1545 1546 1548 1549 1549 1550 1551 1551 1552 1552 1553 1555 1556 1557 1558 1560 1561 1562 1564 1565 1567 1568 1569 1570 1571 1572 1573
1523 1523 1522 1523 1524 1525 1526 1527 1528 1530 1532 1534 1535 1537 1539 1541 1543 1544 1546 1548 1548 1549 1549 1550 1550 1551 1552 1554 1555 1556 1558 1559 1561 1562 1563 1565 1566 1568 1569 1570 1571 1572 1573
1519 1519 1519 1519 1520 1521 1522 1523 1524 1527 1528 1530 1532 1533 1535 1537 1539 1542 1544 1545 1547 1548 1548 1548 1549 1550 1551 1552 1554 1555 1557 1558 1560 1561 1563 1564 1566 1567 1569 1570 1571 1572 1573
1516 1516 1515 1516 1516 1517 1518 1519 1521 1522 1524 1526 1528 1529 1532 1534 1536 1538 1541 1543 1544 1545 1547 1546 1547 1548 1549 1550 1552 1553 1555 1557 1558 1560 1562 1563 1565 1567 1568 1569 1570 1571 1572
1513 1512 1512 1512 1513 1513 1514 1515 1517 1518 1520 1522 1524 1526 1527 1530 1532 1534 1537 1539 1541 1543 1544 1545 1545 1546 1547 1548 1550 1551 1553 1555 1557 1559 1560 1562 1564 1565 1567 1568 1569 1570 1571
1509 1509 1509 1509 1509 1510 1510 1512 1513 1514 1516 1518 1520 1521 1523 1525 1527 1530 1532 1535 1537 1539 1541 1543 1544 1545 1545 1545 1547 1549 1551 1553 1555 1557 1559 1560 1562 1564 1565 1567 1568 1569 1570
1507 1506 1505 1505 1505 1505 1506 1507 1509 1510 1512 1514 1515 1517 1519 1521 1521 1524 1527 1529 1533 1535 1537 1539 1541 1542 1544 1544 1544 1546 1548 1550 1552 1554 1556 1558 1560 1562 1564 1565 1566 1567 1568
1505 1504 1503 1502 1502 1502 1503 1503 1505 1506 1507 1509 1511 1513 1515 1515 1516 1519 1521 1524 1527 1530 1533 1535 1538 1539 1541 1542 1542 1543 1545 1547 1549 1552 1554 1556 1558 1560 1561 1563 1564 1565 1567
1503 1502 1500 1499 1499 1499 1499 1499 1500 1501 1503 1504 1506 1507 1510 1511 1513 1514 1516 1518 1521 1524 1527 1530 1533 1536 1537 1539 1539 1540 1542 1544 1546 1549 1551 1553 1555 1557 1559 1561 1562 1563 1565
1502 1500 1499 1497 1496 1496 1496 1496 1496 1497 1498 1499 1501 1502 1504 1506 1508 1510 1511 1512 1515 1518 1521 1525 1528 1531 1533 1535 1536 1537 1538 1541 1543 1545 1548 1550 1552 1555 1556 1558 1560 1561 1562
1502 1500 1497 1496 1494 1493 1493 1492 1492 1493 1494 1494 1496 1497 1499 1500 1502 1504 1506 1507 1509 1512 1515 1518 1522 1525 1528 1530 1532 1533 1535 1537 1540 1542 1545 1547 1549 1552 1554 1556 1557 1559 1560
1501 1499 1496 1494 1493 1491 1490 1489 1489 1489 1489 1489 1490 1492 1493 1495 1497 1499 1501 1503 1505 1506 1509 1511 1515 1518 1522 1525 1527 1529 1532 1534 1536 1539 1541 1544 1546 1549 1551 1553 1555 1556 1558
1501 1498 1495 1493 1491 1489 1488 1486 1485 1485 1484 1484 1485 1486 1487 1489 1491 1493 1495 1497 1499 1501 1503 1505 1508 1511 1515 1519 1522 1525 1528 1530 1533 1536 1538 1541 1543 1546 1548 1550 1552 1554 1556
1500 1497 1494 1491 1489 1487 1485 1484 1482 1481 1480 1480 1480 1481 1482 1483 1485 1487 1489 1491 1494 1495 1496 1498 1501 1504 1508 1513 1516 1519 1523 1526 1529 1532 1534 1537 1540 1542 1545 1547 1550 1552 1554
1499 1496 1493 1491 1488 1485 1484 1482 1480 1478 1477 1476 1476 1476 1476 1477 1478 1480 1482 1485 1487 1490 1491 1492 1495 1498 1502 1506 1509 1513 1517 1521 1524 1528 1530 1533 1536 1539 1542 1544 1547 1549 1551
1499 1496 1492 1490 1487 1484 1482 1480 1478 1476 1474 1473 1472 1472 1472 1472 1473 1474 1476 1478 1481 1483 1485 1488 1490 1492 1496 1499 1503 1507 1511 1515 1519 1522 1526 1529 1532 1535 1538 1541 1544 1546 1549
1498 1495 1492 1489 1486 1483 1480 1478 1476 1474 1472 1470 1469 1468 1468 1467 1468 1469 1470 1472 1474 1477 1480 1482 1484 1487 1490 1493 1497 1500 1504 1508 1512 1516 1520 1524 1528 1531 1534 1538 1541 1543 1546
1497 1495 1492 1488 1485 1482 1479 1477 1474 1472 1470 1468 1466 1465 1464 1464 1464 1464 1465 1467 1469 1471 1474 1477 1479 1481 1484 1487 1491 1494 1498 1502 1506 1510 1515 1519 1523 1527 1530 1534 1537 1540 1543
1496 1494 1491 1488 1485 1481 1478 1476 1473 1470 1468 1465 1463 1462 1461 1461 1461 1461 1462 1463 1464 1467 1469 1472 1474 1476 1479 1482 1485 1488 1492 1496 1500 1504 1508 1513 1517 1522 1526 1529 1533 1536 1539
1495 1492 1489 1486 1483 1480 1477 1474 1471 1468 1466 1463 1461 1459 1458 1458 1457 1458 1459 1459 1461 1462 1464 1466 1469 1471 1473 1476 1480 1483 1486 1490 1495 1499 1503 1507 1511 1516 1520 1525 1529 1532 1536
1494 1491 1488 1485 1482 1479 1475 1472 1469 1466 1464 1462 1459 1458 1457 1456 1455 1455 1455 1456 1457 1458 1460 1462 1464 1466 1468 1471 1475 1478 1481 1486 1489 1493 1498 1502 1506 1510 1515 1519 1523 1528 1531
1493 1489 1486 1483 1480 1477 1474 1471 1468 1465 1463 1460 1458 1457 1456 1455 1454 1454 1453 1453 1454 1455 1457 1458 1460 1461 1464 1466 1470 1473 1476 1480 1484 1488 1493 1497 1502 1506 1511 1515 1520 1524 1527
1492 1488 1485 1482 1479 1476 1472 1470 1467 1464 1462 1460 1458 1456 1455 1454 1453 1452 1452 1452 1452 1452 1453 1455 1456 1458 1460 1463 1465 1469 1472 1476 1480 1484 1489 1493 1497 1502 1507 1511 1516 1520 1524
1490 1487 1484 1481 1478 1475 1471 1469 1466 1464 1461 1459 1457 1455 1454 1453 1452 1451 1451 1451 1451 1450 1450 1451 1452 1454 1456 1458 1461 1465 1468 1471 1475 1479 1484 1488 1493 1499 1504 1508 1513 1517 1521
1489 1486 1483 1480 1476 1474 1471 1468 1465 1463 1461 1459 1457 1455 1454 1452 1451 1451 1450 1450 1450 1449 1449 1449 1449 1450 1452 1455 1457 1460 1464 1467 1471 1476 1480 1485 1490 1495 1501 1506 1510 1514 1518